{"data":{"norad_id":43485,"intl_designator":"2018-048B","name":"LUOJIA-1 01","alt_names":[],"object_type":"PAYLOAD","status":"ACTIVE","operator":null,"country":"PRC","launch_date":"2018-06-02","launch_site_code":"JSC","launch_vehicle":null,"mission":null,"orbit_class":"UNKNOWN","rcs_meters":null,"size_class":null,"mass_kg":null,"dimensions":null,"purposes":[],"wikipedia_slug":null,"has_3d_model":false,"image_url":null,"decayed_at":null,"tle_current":{"epoch":"2026-09-20T05:28:58.194912Z","epoch_age_seconds":79042,"freshness":"FRESH","line1":"1 43485U 18048B   26263.22845133  .00001069  00000+0  12361-3 0  9993","line2":"2 43485  97.8035 339.8740 0009266 160.2386 199.9191 14.87562516448348","mean_motion":14.87562516,"eccentricity":0.0009266,"inclination_deg":97.8035,"raan_deg":339.874,"arg_perigee_deg":160.2386,"mean_anomaly_deg":199.9191,"bstar":0.00012361,"rev_number":44834,"period_min":96.802654309421,"perigee_km":599.08304685606,"apogee_km":612.02522326755,"semimajor_km":6983.6911350618,"source":"CELESTRAK","updated_at":"2026-09-20T09:00:14.351183Z"}}}